Location: Newark
(53.3039°N, 0.9124°W)
Time: 11:38:53
(UTC+00:00)

Falcon 9 debris - Visible Passes

Search period start: 22 July 2019 00:00
Search period end: 01 August 2019 00:00
Orbit: 431 x 439 km, 53.0° (Epoch: 21 July)

Date Brightness Start Highest point End Pass type
(mag) Time Alt. Az. Time Alt. Az. Time Alt. Az.
22 Jul 3.7 00:50:02 35° SSE 00:50:17 36° SSE 00:53:29 10° E visible
22 Jul 3.0 02:23:40 10° W 02:27:07 82° S 02:30:35 10° E visible
23 Jul 4.4 00:08:55 25° ESE 00:08:55 25° ESE 00:11:08 10° E visible
23 Jul 3.0 01:42:11 16° WSW 01:44:52 75° SSE 01:48:19 10° E visible
23 Jul 5.2 23:27:45 15° ESE 23:27:45 15° ESE 23:28:43 10° E visible
24 Jul 3.0 01:01:01 28° WSW 01:02:37 65° SSE 01:06:03 10° E visible
24 Jul 3.1 02:36:10 10° W 02:39:38 86° S 02:43:05 10° E visible
25 Jul 3.1 00:19:44 45° SSW 00:20:23 55° SSE 00:23:46 10° E visible
25 Jul 3.0 01:53:54 10° W 01:57:22 88° S 02:00:49 10° E visible
25 Jul 3.4 23:38:16 44° SSE 23:38:16 44° SSE 23:41:29 10° E visible
26 Jul 3.0 01:11:37 10° W 01:15:05 86° S 01:18:33 10° E visible
26 Jul 3.1 02:48:40 10° W 02:52:05 64° SSW 02:55:30 10° ESE visible
26 Jul 3.7 22:56:19 35° SE 22:56:19 35° SE 22:59:10 10° E visible
27 Jul 3.0 00:29:28 11° W 00:32:48 82° S 00:36:16 10° E visible
27 Jul 3.0 02:06:23 10° W 02:09:50 73° SSW 02:13:17 10° ESE visible
27 Jul 4.0 22:10:48 10° SSW 22:13:47 28° SSE 22:16:49 10° E visible
27 Jul 2.9 23:47:05 10° WSW 23:50:33 74° SSE 23:54:00 10° E visible
28 Jul 3.0 01:24:07 10° W 01:27:34 81° S 01:31:02 10° ESE visible
28 Jul 3.7 03:01:14 10° W 03:04:24 34° SSW 03:07:33 10° SE visible
28 Jul 4.3 21:28:56 10° SSW 21:31:39 22° SE 21:34:23 10° E visible
28 Jul 3.0 23:04:51 10° WSW 23:08:17 65° SSE 23:11:43 10° E visible
29 Jul 3.0 00:41:49 10° W 00:45:18 86° S 00:48:45 10° E visible
29 Jul 3.4 02:18:54 10° W 02:22:12 43° SSW 02:25:29 10° SE visible
29 Jul 4.7 20:47:14 10° S 20:49:32 17° SE 20:51:49 10° E visible
29 Jul 3.1 22:22:40 10° WSW 22:26:02 54° SSE 22:29:26 10° E visible
29 Jul 3.0 23:59:33 10° W 00:03:01 88° S 00:06:29 10° E visible
30 Jul 3.1 01:36:35 10° W 01:39:59 54° SSW 01:43:21 10° ESE visible
30 Jul 4.7 03:14:14 10° W 03:16:29 16° SW 03:18:43 10° S visible
30 Jul 3.4 21:40:31 10° SW 21:43:49 44° SSE 21:47:08 10° E visible
30 Jul 3.0 23:17:15 10° W 23:20:43 86° S 23:24:11 10° E visible
31 Jul 3.0 00:54:18 10° W 00:57:44 64° SSW 01:01:09 10° ESE visible
31 Jul 4.3 02:31:39 10° W 02:34:22 21° SW 02:37:03 10° SSE visible
31 Jul 3.7 20:58:25 10° SW 21:01:37 35° SSE 21:04:48 10° E visible
31 Jul 3.0 22:34:58 10° WSW 22:38:26 81° S 22:41:54 10° E visible
